Regional Weather Roundup
Issued by NWS Newport/Morehead, NC

Current Version | Previous Version | Graphics & Text | Print | Product List | Glossary On
Versions: 1 2 3 4 5 6 7 8 9 10 11 12 13 14 15 16 17 18 19 20 21 22 23 24 25 26 27 28 29 30 31 32 33 34 35 36 37 38 39 40 41 42 43 44 45 46 47 48 49 50
000 ASUS42 KMHX 172213 RWRMHX WEATHER ROUNDUP FOR EASTERN NORTH CAROLINA NATIONAL WEATHER SERVICE NEWPORT/MOREHEAD CITY NC 500 PM EST TUE JAN 17 2017 NOTE: "FAIR" INDICATES FEW OR NO CLOUDS BELOW 12,000 FEET WITH NO SIGNIFICANT WEATHER AND/OR OBSTRUCTIONS TO VISIBILITY NCZ015>017-031-032-045>047-102-103-172300- NORTH COAST CITY SKY/WX TMP DP RH WIND PRES REMARKS EDENTON PTCLDY 60 55 82 SW3 30.12S ELIZABETH CITY CLOUDY 58 54 86 S9 30.10F KITTY HAWK NOT AVBL MANTEO MOCLDY 53 49 87 S9 30.12F $$ NCZ045>047-081-094-103-104-172300- CENTRAL COAST CITY SKY/WX TMP DP RH WIND PRES REMARKS FRISCO PTCLDY 57 48 72 CALM 30.15S $$ NCZ095-097-098-100-101-172300- SOUTHERN COAST CITY SKY/WX TMP DP RH WIND PRES REMARKS BEAUFORT PTCLDY 60 56 86 SW8 30.16R CEDAR ISLAND NOT AVBL JACKSONVILLE MOCLDY 67 59 75 SW5 30.16R PINEY ISLAND PTCLDY N/A N/A N/A CALM 30.15R WILMINGTON CLOUDY 68 57 68 W6 30.17R $$ NCZ011>013-027>030-043-044-078>080-089-090>093-098-172300- COASTAL PLAIN CITY SKY/WX TMP DP RH WIND PRES REMARKS AHOSKIE MOCLDY 57 53 86 SW3 30.10R CLINTON PTCLDY 63 56 79 CALM 30.17R ELIZABETHTOWN PTCLDY 64 57 78 CALM 30.17R GOLDSBORO MOCLDY 62 59 88 S5 30.13S GREENVILLE CLOUDY 63 55 77 SW6 30.15S HAVELOCK CLOUDY 65 59 81 S6 30.17R KENANSVILLE CLOUDY 63 55 77 SW3 30.17S KINSTON CLOUDY 63 55 77 SW6 30.15S NEW BERN PTCLDY 67 56 67 SW8 30.16R RICHLANDS MOCLDY 64 57 78 W6 30.17R ROCKY MOUNT LGT RAIN 57 54 89 S8 30.12F WASHINGTON CLOUDY 62 55 78 SW5 30.14S WHITEVILLE CLOUDY 67 57 68 S5 30.16S $$ AMZ130-135-150-152-154-156-158-170-250-252-270-ANZ085-086-088-633-658-670-172300- MARINE OBSERVATIONS STATION/POSITION TIME TEMP WIND PRES WAVE SWELL AIR SEA DIR/SP/G HT/PER HT/PER (UTC) (F) (DEG/KT/KT) (MB) (FT/S) (FT/S) CHESAPEAKE LIGHT NOT AVBL 64 E VA BEACH 2150 56 56 200/ 10/ 12 1019.2 2/ 9 2/ 9 DUCK 2148 57 44 210/ 10/ 12 1018.8 2 E DUCK 2130 45 N/A 1/10 OREGON INLET 2142 51 48 180/ 11/ 13 1019.9 13E OREGON INLT NOT AVBL HATTERAS CG 2148 53 90/ 1/ 2 1020.5 DIAMOND BUOY 2150 70 73 230/ 16/ 17 1020.8 2/ 9 2/ 9 CAPE LOOKOUT 2100 65 210/ 8/ 10 1020.8 BEAUFORT LAB 2148 49 210/ 4/ 5 1020.4 30 SE NEW RVR IN 2108 62 63 230/ 4/ 4 1021.6 30 SE NEW RVR IN 2143 64 N/A 2/ 9 27 SE WRIGHTSVLE 2108 67 70 220/ 12/ 16 1021.2 5 SE WRIGHTSVLE 2108 59 210/ 8/ 12 1021.1 225 S CAPE HAT 2150 72 72 220/ 10/ 12 1023.8 3/ 8 3/ 8 41 SE CHARLESTON 2150 70 71 230/ 8/ 8 1022.1 2/ 8 2/ 8 $$

USA.gov is the U.S. government's official web portal to all federal, state and local government web resources and services.